2015-01-07 00:03:26 r, 16.28m,0000000027Hz,0000016929c,0000000.037s,-004.2C,00002195
2015-01-07 00:13:26 r, 16.37m,0000000025Hz,0000018376c,0000000.040s,-004.2C,00002195
2015-01-07 00:23:26 r, 16.33m,0000000026Hz,0000017841c,0000000.039s,-004.2C,00002195
2015-01-07 00:33:26 r, 16.23m,0000000029Hz,0000016206c,0000000.035s,-004.6C,00002195
2015-01-07 00:43:26 r, 16.22m,0000000029Hz,0000016034c,0000000.035s,-004.6C,00002195
2015-01-07 00:53:26 r, 16.22m,0000000030Hz,0000015947c,0000000.035s,-004.6C,00002195
2015-01-07 01:03:26 r, 16.13m,0000000031Hz,0000014685c,0000000.032s,-004.6C,00002195
2015-01-07 01:13:26 r, 16.02m,0000000034Hz,0000013367c,0000000.029s,-004.6C,00002195
2015-01-07 01:23:26 r, 15.96m,0000000037Hz,0000012557c,0000000.027s,-004.6C,00002195
2015-01-07 01:33:26 r, 15.87m,0000000039Hz,0000011616c,0000000.025s,-004.6C,00002195
2015-01-07 01:43:26 r, 15.83m,0000000042Hz,0000011197c,0000000.024s,-004.6C,00002195
2015-01-07 01:53:26 r, 15.77m,0000000043Hz,0000010666c,0000000.023s,-004.6C,00002195
2015-01-07 02:03:26 r, 15.74m,0000000045Hz,0000010269c,0000000.022s,-004.6C,00002195
2015-01-07 02:13:26 r, 15.77m,0000000043Hz,0000010685c,0000000.023s,-004.6C,00002195
2015-01-07 02:23:26 r, 15.83m,0000000041Hz,0000011256c,0000000.024s,-004.6C,00002195
2015-01-07 02:33:26 r, 15.94m,0000000038Hz,0000012345c,0000000.027s,-004.6C,00002195
2015-01-07 02:43:26 r, 15.77m,0000000043Hz,0000010626c,0000000.023s,-004.6C,00002195
2015-01-07 02:53:26 r, 15.45m,0000000059Hz,0000007890c,0000000.017s,-004.6C,00002195
2015-01-07 03:03:26 r, 15.67m,0000000047Hz,0000009610c,0000000.021s,-004.2C,00002195
2015-01-07 03:13:26 r, 15.97m,0000000037Hz,0000012739c,0000000.028s,-003.9C,00002195
2015-01-07 03:23:26 r, 15.91m,0000000038Hz,0000012052c,0000000.026s,-003.9C,00002195
2015-01-07 03:33:26 r, 15.87m,0000000040Hz,0000011541c,0000000.025s,-003.9C,00002195
2015-01-07 03:43:26 r, 15.77m,0000000044Hz,0000010633c,0000000.023s,-003.6C,00002195
2015-01-07 03:53:26 r, 16.33m,0000000026Hz,0000017845c,0000000.039s,-003.6C,00002195
2015-01-07 04:03:26 r, 16.67m,0000000019Hz,0000024243c,0000000.053s,-003.6C,00002195
2015-01-07 04:13:26 r, 16.75m,0000000017Hz,0000026164c,0000000.057s,-003.9C,00002195
2015-01-07 04:23:26 r, 16.82m,0000000016Hz,0000027982c,0000000.061s,-003.9C,00002195
2015-01-07 04:33:26 r, 16.42m,0000000023Hz,0000019432c,0000000.042s,-003.9C,00002195
2015-01-07 04:43:26 r, 16.74m,0000000018Hz,0000025880c,0000000.056s,-003.9C,00002195
2015-01-07 04:53:26 r, 16.70m,0000000019Hz,0000025007c,0000000.054s,-003.9C,00002195
2015-01-07 05:03:26 r, 16.86m,0000000016Hz,0000029013c,0000000.063s,-004.2C,00002195
2015-01-07 05:13:26 r, 16.87m,0000000015Hz,0000029178c,0000000.063s,-004.2C,00002195
2015-01-07 05:23:26 r, 16.93m,0000000015Hz,0000030796c,0000000.067s,-004.2C,00002195
2015-01-07 05:33:26 r, 16.96m,0000000014Hz,0000031746c,0000000.069s,-004.2C,00002195
2015-01-07 05:43:26 r, 16.96m,0000000015Hz,0000031798c,0000000.069s,-004.2C,00002195
2015-01-07 05:53:26 r, 16.98m,0000000015Hz,0000032133c,0000000.070s,-004.2C,00002195
2015-01-07 06:03:26 r, 17.00m,0000000014Hz,0000032840c,0000000.071s,-004.6C,00002195
2015-01-07 06:13:26 r, 17.02m,0000000013Hz,0000033788c,0000000.073s,-004.6C,00002195
2015-01-07 06:23:26 r, 17.04m,0000000013Hz,0000034132c,0000000.074s,-004.9C,00002195
2015-01-07 06:33:26 r, 17.06m,0000000013Hz,0000034934c,0000000.076s,-004.9C,00002195
2015-01-07 06:43:26 r, 17.08m,0000000013Hz,0000035424c,0000000.077s,-004.9C,00002195
2015-01-07 06:53:26 r, 17.08m,0000000013Hz,0000035473c,0000000.077s,-004.9C,00002195
2015-01-07 07:03:26 r, 17.05m,0000000014Hz,0000034364c,0000000.075s,-004.9C,00002195
2015-01-07 07:13:26 r, 16.89m,0000000016Hz,0000029747c,0000000.065s,-004.9C,00002195
2015-01-07 07:23:26 r, 16.42m,0000000024Hz,0000019379c,0000000.042s,-004.9C,00002195
2015-01-07 07:33:26 r, 15.40m,0000000061Hz,0000007498c,0000000.016s,-004.9C,00002195
2015-01-07 07:43:26 r, 13.68m,0000000301Hz,0000000000c,0000000.000s,-004.9C,00002195
2015-01-07 07:53:26 r, 11.80m,0000001692Hz,0000000000c,0000000.000s,-004.9C,00002195
2015-01-07 08:03:26 r, 10.13m,0000007913Hz,0000000000c,0000000.000s,-004.9C,00002195
2015-01-07 08:13:26 r, 08.69m,0000029727Hz,0000000000c,0000000.000s,-005.2C,00002195
2015-01-07 08:23:26 r, 07.61m,0000080508Hz,0000000000c,0000000.000s,-005.2C,00002195
2015-01-07 08:33:26 r, 06.84m,0000162923Hz,0000000000c,0000000.000s,-005.2C,00002195
2015-01-07 08:43:26 r, 06.31m,0000267176Hz,0000000000c,0000000.000s,-005.2C,00002195
2015-01-07 08:53:26 r, 05.92m,0000380893Hz,0000000000c,0000000.000s,-004.9C,00002195
2015-01-07 09:03:26 r, 00.00m,0000493507Hz,0000000000c,0000000.000s,-004.9C,00002195
2015-01-07 09:13:26 r, 00.00m,0000559769Hz,0000000000c,0000000.000s,-004.6C,00002195
2015-01-07 09:23:26 r, 00.00m,0000559681Hz,0000000000c,0000000.000s,-004.6C,00002195
2015-01-07 09:33:26 r, 00.00m,0000559825Hz,0000000000c,0000000.000s,-004.2C,00002195
2015-01-07 09:43:26 r, 00.00m,0000560130Hz,0000000000c,0000000.000s,-003.0C,00002195
2015-01-07 09:53:26 r, 00.00m,0000560204Hz,0000000000c,0000000.000s,-001.7C,00002195
2015-01-07 10:03:26 r, 00.00m,0000560396Hz,0000000000c,0000000.000s,-000.7C,00002195
2015-01-07 10:13:26 r, 00.00m,0000560480Hz,0000000000c,0000000.000s, 000.3C,00002195
2015-01-07 10:23:26 r, 00.00m,0000560520Hz,0000000000c,0000000.000s, 000.9C,00002195
2015-01-07 10:33:26 r, 00.00m,0000560776Hz,0000000000c,0000000.000s, 001.6C,00002195
2015-01-07 10:43:26 r, 00.00m,0000560907Hz,0000000000c,0000000.000s, 001.9C,00002195
2015-01-07 10:53:26 r, 00.00m,0000560912Hz,0000000000c,0000000.000s, 002.5C,00002195
2015-01-07 11:03:26 r, 00.00m,0000560997Hz,0000000000c,0000000.000s, 003.2C,00002195
2015-01-07 11:13:26 r, 00.00m,0000561063Hz,0000000000c,0000000.000s, 002.9C,00002195
2015-01-07 11:23:26 r, 00.00m,0000561010Hz,0000000000c,0000000.000s, 003.2C,00002195
2015-01-07 11:33:26 r, 00.00m,0000561003Hz,0000000000c,0000000.000s, 003.5C,00002195
2015-01-07 11:43:26 r, 00.00m,0000561034Hz,0000000000c,0000000.000s, 003.8C,00002195
2015-01-07 11:53:26 r, 00.00m,0000561040Hz,0000000000c,0000000.000s, 003.5C,00002195
2015-01-07 12:03:26 r, 00.00m,0000561141Hz,0000000000c,0000000.000s, 003.5C,00002195
2015-01-07 12:13:26 r, 00.00m,0000561134Hz,0000000000c,0000000.000s, 003.5C,00002195
2015-01-07 12:23:26 r, 00.00m,0000561186Hz,0000000000c,0000000.000s, 003.8C,00002195
2015-01-07 12:33:26 r, 00.00m,0000561126Hz,0000000000c,0000000.000s, 003.8C,00002195
2015-01-07 12:43:26 r, 00.00m,0000561269Hz,0000000000c,0000000.000s, 004.1C,00002195
2015-01-07 12:53:26 r, 00.00m,0000561201Hz,0000000000c,0000000.000s, 004.1C,00002195
2015-01-07 13:03:26 r, 00.00m,0000561155Hz,0000000000c,0000000.000s, 004.5C,00002195
2015-01-07 13:13:26 r, 00.00m,0000561222Hz,0000000000c,0000000.000s, 004.1C,00002195
2015-01-07 13:23:26 r, 00.00m,0000561216Hz,0000000000c,0000000.000s, 004.1C,00002195
2015-01-07 13:33:26 r, 00.00m,0000561198Hz,0000000000c,0000000.000s, 003.8C,00002195
2015-01-07 13:43:26 r, 00.00m,0000561206Hz,0000000000c,0000000.000s, 004.1C,00002195
2015-01-07 13:53:26 r, 00.00m,0000561090Hz,0000000000c,0000000.000s, 003.8C,00002195
2015-01-07 14:03:26 r, 00.00m,0000561107Hz,0000000000c,0000000.000s, 003.5C,00002195
2015-01-07 14:13:26 r, 00.00m,0000560998Hz,0000000000c,0000000.000s, 003.2C,00002195
2015-01-07 14:23:26 r, 00.00m,0000560948Hz,0000000000c,0000000.000s, 002.9C,00002195
2015-01-07 14:33:26 r, 00.00m,0000560831Hz,0000000000c,0000000.000s, 002.2C,00002195
2015-01-07 14:43:26 r, 00.00m,0000560805Hz,0000000000c,0000000.000s, 002.2C,00002195
2015-01-07 14:53:26 r, 00.00m,0000560839Hz,0000000000c,0000000.000s, 002.2C,00002195
2015-01-07 15:03:26 r, 00.00m,0000560909Hz,0000000000c,0000000.000s, 002.2C,00002195
2015-01-07 15:13:26 r, 00.00m,0000560799Hz,0000000000c,0000000.000s, 002.2C,00002195
2015-01-07 15:23:26 r, 00.00m,0000560825Hz,0000000000c,0000000.000s, 001.9C,00002195
2015-01-07 15:33:26 r, 00.00m,0000560787Hz,0000000000c,0000000.000s, 001.9C,00002195
2015-01-07 15:43:26 r, 00.00m,0000560725Hz,0000000000c,0000000.000s, 001.6C,00002195
2015-01-07 15:53:26 r, 00.00m,0000560757Hz,0000000000c,0000000.000s, 001.6C,00002195
2015-01-07 16:03:26 r, 00.00m,0000560668Hz,0000000000c,0000000.000s, 001.2C,00002195
2015-01-07 16:13:26 r, 00.00m,0000486028Hz,0000000000c,0000000.000s, 000.9C,00002195
2015-01-07 16:23:26 r, 06.11m,0000322758Hz,0000000000c,0000000.000s, 000.6C,00002195
2015-01-07 16:33:26 r, 06.83m,0000165022Hz,0000000000c,0000000.000s, 000.6C,00002195
2015-01-07 16:43:26 r, 07.41m,0000096402Hz,0000000000c,0000000.000s, 000.3C,00002195
2015-01-07 16:53:26 r, 08.32m,0000041800Hz,0000000000c,0000000.000s, 000.3C,00002195
2015-01-07 17:03:26 r, 09.62m,0000012657Hz,0000000000c,0000000.000s, 000.1C,00002195
2015-01-07 17:13:26 r, 11.19m,0000002969Hz,0000000000c,0000000.000s, 000.1C,00002195
2015-01-07 17:23:26 r, 13.05m,0000000536Hz,0000000000c,0000000.000s, 000.1C,00002195
2015-01-07 17:33:26 r, 14.88m,0000000100Hz,0000004674c,0000000.010s, 000.1C,00002195
2015-01-07 17:43:26 r, 16.16m,0000000030Hz,0000015142c,0000000.033s, 000.1C,00002195
2015-01-07 17:53:26 r, 16.77m,0000000017Hz,0000026680c,0000000.058s, 000.1C,00002195
2015-01-07 18:03:26 r, 16.72m,0000000018Hz,0000025328c,0000000.055s, 000.1C,00002195
2015-01-07 18:13:26 r, 16.73m,0000000017Hz,0000025717c,0000000.056s, 000.1C,00002195
2015-01-07 18:23:26 r, 16.37m,0000000025Hz,0000018495c,0000000.040s, 000.1C,00002195
2015-01-07 18:33:26 r, 16.46m,0000000023Hz,0000020061c,0000000.044s, 000.1C,00002195
2015-01-07 18:43:26 r, 16.34m,0000000025Hz,0000017925c,0000000.039s, 000.1C,00002195
2015-01-07 18:53:26 r, 16.29m,0000000027Hz,0000017239c,0000000.037s, 000.1C,00002195
2015-01-07 19:03:26 r, 16.25m,0000000028Hz,0000016433c,0000000.036s, 000.1C,00002195
2015-01-07 19:13:26 r, 16.47m,0000000023Hz,0000020182c,0000000.044s, 000.1C,00002195
2015-01-07 19:23:26 r, 16.70m,0000000019Hz,0000025013c,0000000.054s, 000.1C,00002195
2015-01-07 19:33:26 r, 16.52m,0000000022Hz,0000021079c,0000000.046s, 000.1C,00002195
2015-01-07 19:43:26 r, 16.44m,0000000024Hz,0000019704c,0000000.043s, 000.1C,00002195
2015-01-07 19:53:26 r, 16.19m,0000000029Hz,0000015668c,0000000.034s, 000.1C,00002195
2015-01-07 20:03:26 r, 16.09m,0000000032Hz,0000014199c,0000000.031s, 000.3C,00002195
2015-01-07 20:13:26 r, 15.97m,0000000035Hz,0000012768c,0000000.028s, 000.3C,00002195
2015-01-07 20:23:26 r, 15.98m,0000000036Hz,0000012686c,0000000.028s, 000.6C,00002195
2015-01-07 20:33:26 r, 15.82m,0000000042Hz,0000010961c,0000000.024s, 000.6C,00002195
2015-01-07 20:43:26 r, 15.76m,0000000044Hz,0000010374c,0000000.023s, 000.6C,00002195
2015-01-07 20:53:26 r, 15.77m,0000000043Hz,0000010538c,0000000.023s, 000.6C,00002195
2015-01-07 21:03:26 r, 15.50m,0000000056Hz,0000008229c,0000000.018s, 000.6C,00002195
2015-01-07 21:13:26 r, 15.86m,0000000041Hz,0000011336c,0000000.025s, 000.6C,00002195
2015-01-07 21:23:26 r, 15.97m,0000000036Hz,0000012667c,0000000.027s, 000.6C,00002195
2015-01-07 21:33:26 r, 15.76m,0000000044Hz,0000010418c,0000000.023s, 000.6C,00002195
2015-01-07 21:43:26 r, 15.88m,0000000040Hz,0000011584c,0000000.025s, 000.6C,00002195
2015-01-07 21:53:26 r, 15.83m,0000000042Hz,0000011132c,0000000.024s, 000.6C,00002195
2015-01-07 22:03:26 r, 15.19m,0000000074Hz,0000006222c,0000000.014s, 000.6C,00002195
2015-01-07 22:13:26 r, 14.88m,0000000098Hz,0000004688c,0000000.010s, 000.9C,00002195
2015-01-07 22:23:26 r, 14.70m,0000000116Hz,0000003961c,0000000.009s, 000.9C,00002195
2015-01-07 22:33:26 r, 14.62m,0000000124Hz,0000003695c,0000000.008s, 001.2C,00002195
2015-01-07 22:43:26 r, 14.51m,0000000140Hz,0000000000c,0000000.000s, 001.2C,00002195
2015-01-07 22:53:26 r, 14.56m,0000000133Hz,0000000000c,0000000.000s, 001.2C,00002195
2015-01-07 23:03:26 r, 14.68m,0000000118Hz,0000003889c,0000000.008s, 001.2C,00002195
2015-01-07 23:13:26 r, 14.60m,0000000128Hz,0000000000c,0000000.000s, 001.6C,00002195
2015-01-07 23:23:26 r, 14.76m,0000000109Hz,0000004189c,0000000.009s, 001.6C,00002195
2015-01-07 23:33:26 r, 14.74m,0000000111Hz,0000004102c,0000000.009s, 001.6C,00002195
2015-01-07 23:43:26 r, 14.72m,0000000114Hz,0000004031c,0000000.009s, 001.9C,00002195
2015-01-07 23:53:26 r, 14.65m,0000000122Hz,0000003752c,0000000.008s, 002.2C,00002195
